TOURFACTS.DK  
Stats and Facts from Tour de France.

Tour de France 2019 starts in 347 days
  Riders   Stages   Teams   Summits   Yearly  


 
Search by year

After 2018 - Stage 14:
 15000 starters.
  5163 different riders.
  639 teams.
  2246 stages.
  456 restdays.
  441957.60 km.
  5678 abandonnees.


Top 3
GC
Christopher Froome86:20:55
Rigoberto Urán86:21:49
Romain Bardet86:23:15
Climb
Warren Barguil169 pt.
Primoz Roglic80 pt.
Thomas De Gendt64 pt.
Sprint
Michael Matthews359 pt.
André Greipel234 pt.
Edvald Boasson Hagen220 pt.
Youth
Simon Yates86:27:09
Louis Meintjes86:29:15
Emanuel Buchmann86:54:16
Facts from Tour de France 1938
  |   Stages.  |   Stage winners.  |   Days in yellow  |   Average speed.  |   Route.  |   Teams.  |   All riders.  |   Rookies.  |  

  |   Withdrawls.  |   GC.  |   Polka  |   Green  |   White  |   Summits. (In tour)  |   Miscellaneous.  |  

Stage 20c on July 29th. 1938
         Owning:    Gino Bartali    
Pick a stage:  1 2 3 4a 4b 4c 5 6a 6b 7 8 9 10a 10b 10c 11 12 13 14 15 16 17a 17b 18 19 20a 20b 20c 21
From: Saint-Quentin    To: LilleDist:107.00 km.

Average speed for all riders in stage:  32,826 km./hr.
    Place:Name:Team:Time:Km/h:
BELFrançois NeuvilleBELBelgium03:07:12  +  00:00:00=34,295 
FRAJean FréchautFRAFrance03:08:31  +  00:01:19=34,055 
BELConstant LauwersBELBelgium03:08:31  +  00:01:19=34,055 
4 LUXJean MajerusLUXLuxembourg03:12:21  +  00:05:09=33,377 
5 ITAAldo BiniITAItaly03:14:37  +  00:07:25=32,988 
6 ITAGlauco ServadeiITAItaly03:14:37  +  00:07:25=32,988 
7 FRAPierre JaminetFRAFrance03:14:37  +  00:07:25=32,988 
8 FRAAndré LeducqFRACadets03:14:37  +  00:07:25=32,988 
9 SUIPaul EgliCHESwitzerland03:14:37  +  00:07:25=32,988 
10 BELSylvère MaesBELBelgium03:14:37  +  00:07:25=32,988 
11 NEDAntoon Van SchendelNLDHolland03:14:37  +  00:07:25=32,988 
12 BELMarcel KintBELBelgium03:14:37  +  00:07:25=32,988 
13 BELEdward VissersBELBelgium03:14:37  +  00:07:25=32,988 
14 BELFélicien VervaeckeBELBelgium03:14:37  +  00:07:25=32,988 
15 BELAlbertin DisseauxBELBelgium03:14:37  +  00:07:25=32,988 
16 BELEmile Masson jr.BELBelgium03:14:37  +  00:07:25=32,988 
17 BELJules LowieBELBelgium03:14:37  +  00:07:25=32,988 
18 ITAGino BartaliITAItaly03:14:37  +  00:07:25=32,988 
19 ITAVasco BergamaschiITAItaly03:14:37  +  00:07:25=32,988 
20 ITAMario ViciniITAItaly03:14:37  +  00:07:25=32,988 
21 ITAGiuseppe MartanoITAItaly03:14:37  +  00:07:25=32,988 
22 GERHerbert HauswaldDEUGermany03:14:37  +  00:07:25=32,988 
23 GERReinhold WendelDEUGermany03:14:37  +  00:07:25=32,988 
24 GERJosef ArentsDEUGermany03:14:37  +  00:07:25=32,988 
25 FRAAntonin MagneFRAFrance03:14:37  +  00:07:25=32,988 
26 LUXArsène MerschLUXLuxembourg03:14:37  +  00:07:25=32,988 
27 FRAPierre GallienFRAFrance03:14:37  +  00:07:25=32,988 
28 FRAVictor CossonFRAFrance03:14:37  +  00:07:25=32,988 
29 FRAJean-Marie GoasmatFRAFrance03:14:37  +  00:07:25=32,988 
30 ESPMariano CañardoESPSpain03:14:37  +  00:07:25=32,988 
31 ESPJulián BerrenderoESPSpain03:14:37  +  00:07:25=32,988 
32 ESPRafael RamosESPSpain03:14:37  +  00:07:25=32,988 
33 NEDJanus HellemonsNLDHolland03:14:37  +  00:07:25=32,988 
34 FRAMathias ClemensLUXLuxembourg03:14:37  +  00:07:25=32,988 
35 NEDTheo MiddelkampNLDHolland03:14:37  +  00:07:25=32,988 
36 LUXFrançois NeuensLUXLuxembourg03:14:37  +  00:07:25=32,988 
37 SUIRaymond LouviotFRACadets03:14:37  +  00:07:25=32,988 
38 FRAFabien GalateauFRACadets03:14:37  +  00:07:25=32,988 
39 FRARobert TanneveauFRACadets03:14:37  +  00:07:25=32,988 
40 FRARobert OubronFRACadets03:14:37  +  00:07:25=32,988 
41 FRAJean FontenayFRACadets03:14:37  +  00:07:25=32,988 
42 FRARaymond PassatFRACadets03:14:37  +  00:07:25=32,988 
43 SUIBruno CariniFRACadets03:14:37  +  00:07:25=32,988 
44 FRALucien Le GuevelFRABluets03:14:37  +  00:07:25=32,988 
45 ITAOreste BernardoniFRABluets03:14:37  +  00:07:25=32,988 
46 ITADante GianelloFRABluets03:14:37  +  00:07:25=32,988 
47 FRACamille LeroyFRABluets03:14:37  +  00:07:25=32,988 
48 GEROtto WeckerlingDEUGermany03:15:08  +  00:07:56=32,901 
49 BELRene WalschotBELBelgium03:20:00  +  00:12:48=32,100 
50 ITAEnrico MolloITAItaly03:23:31  +  00:16:19=31,545 
51 ITALuigi IntrozziITAItaly03:23:31  +  00:16:19=31,545 
52 ITAGiordano CotturITAItaly03:23:31  +  00:16:19=31,545 
53 FRAAlbert BourlonFRABluets03:23:31  +  00:16:19=31,545 
54 FRAYvan MarieFRACadets03:23:31  +  00:16:19=31,545 
55 ITANello TroggiITAItaly03:38:57  +  00:31:45=29,322 


Todays birthdays.

1887  Donald Kirkham
1889  Théodore Abada
1911  Guillaume Chavard
1912  Jean Fontenay
1913  Fabien Galateau
1930  Roger Hassenforder
1930  Richard Van Genechten
1936  Philippe Gaudrillet
1937  Joseph Novales
1954  Hans-Peter Jakst
1960  Manuel Ramos
1973  David Etxebarria
1974  Rik Verbrugghe
1976  Jörg Jaksche




Visits: